When you browse on this site, cookies collect data to enhance your experience and personalize the content and advertising you see.
Visit our Privacy Policy to learn more. By continuing to use the site, you agree to this use of cookies and data.
  • In Hungary
  • List of Countries
  • For 7 days
  • Water Temperature
  • Satellite Maps
  • Weather Map
  • News
  • Weather Widgets
  • user-avatar
    Login

    Hourly Weather Ehingen

    Today, 22 February, Friday

    Time Temperature Precipitation Wind Pressure Humidity
    00:00 +5°C° 0 mm 2 mps 724 mmHg 90%
    01:00 +5°C° 0 mm 2 mps 725 mmHg 92%
    02:00 +5°C° 0 mm 2 mps 725 mmHg 93%
    03:00 +5°C° 0 mm 2 mps 725 mmHg 94%
    04:00 +5°C° 0 mm 3 mps 725 mmHg 96%
    05:00 +6°C° 0 mm 2 mps 725 mmHg 96%
    06:00 +6°C° 0 mm 2 mps 725 mmHg 96%
    07:00 +5°C° 0 mm 3 mps 725 mmHg 96%
    08:00 +5°C° 0 mm 3 mps 726 mmHg 95%
    09:00 +7°C° 0 mm 3 mps 726 mmHg 93%
    10:00 +7°C° 0 mm 2 mps 726 mmHg 92%
    11:00 +8°C° 0.1 mm 3 mps 726 mmHg 88%
    12:00 +8°C° 0.1 mm 3 mps 726 mmHg 85%
    13:00 +8°C° 0.1 mm 3 mps 727 mmHg 81%
    14:00 +8°C° 0 mm 3 mps 727 mmHg 80%
    15:00 +8°C° 0 mm 3 mps 727 mmHg 78%
    16:00 +8°C° 0 mm 3 mps 727 mmHg 76%
    17:00 +7°C° 0 mm 3 mps 727 mmHg 82%
    18:00 +6°C° 0 mm 2 mps 727 mmHg 87%
    19:00 +5°C° 0 mm 2 mps 728 mmHg 93%
    20:00 +3°C° 0 mm 3 mps 728 mmHg 93%
    21:00 +3°C° 0 mm 3 mps 728 mmHg 94%
    22:00 +3°C° 0 mm 4 mps 728 mmHg 94%
    23:00 +1°C° 0 mm 4 mps 728 mmHg 94%

    Tomorrow, 23 February, Saturday

    Time Temperature Precipitation Wind Pressure Humidity
    00:00 +1°C° 0 mm 4 mps 728 mmHg 94%
    01:00 0°C° 0 mm 4 mps 728 mmHg 94%
    02:00 -1°C° 0 mm 4 mps 728 mmHg 94%
    03:00 -1°C° 0 mm 4 mps 728 mmHg 95%
    04:00 -2°C° 0 mm 4 mps 728 mmHg 95%
    05:00 -2°C° 0 mm 4 mps 728 mmHg 89%
    06:00 -4°C° 0 mm 5 mps 728 mmHg 83%
    07:00 -4°C° 0 mm 5 mps 728 mmHg 77%
    08:00 -2°C° 0 mm 5 mps 728 mmHg 68%
    09:00 -2°C° 0 mm 6 mps 728 mmHg 59%
    10:00 -1°C° 0 mm 6 mps 728 mmHg 49%
    11:00 0°C° 0 mm 7 mps 728 mmHg 44%
    12:00 +3°C° 0 mm 7 mps 728 mmHg 39%
    13:00 +4°C° 0 mm 7 mps 727 mmHg 34%
    14:00 +4°C° 0 mm 7 mps 727 mmHg 35%
    15:00 +3°C° 0 mm 7 mps 727 mmHg 36%
    16:00 +3°C° 0 mm 7 mps 726 mmHg 37%
    17:00 0°C° 0 mm 7 mps 726 mmHg 38%
    18:00 -1°C° 0 mm 7 mps 727 mmHg 39%
    19:00 -3°C° 0 mm 6 mps 727 mmHg 40%
    20:00 -3°C° 0 mm 6 mps 727 mmHg 40%
    21:00 -4°C° 0 mm 6 mps 727 mmHg 40%
    22:00 -4°C° 0 mm 6 mps 727 mmHg 40%
    23:00 -4°C° 0 mm 6 mps 727 mmHg 40%

    Day after tomorrow, 24 February, Sunday

    Time Temperature Precipitation Wind Pressure Humidity
    00:00 -4°C° 0 mm 6 mps 727 mmHg 40%
    01:00 -4°C° 0 mm 6 mps 727 mmHg 40%
    02:00 -4°C° 0 mm 5 mps 727 mmHg 39%
    03:00 -4°C° 0 mm 5 mps 727 mmHg 39%
    04:00 -4°C° 0 mm 5 mps 727 mmHg 38%
    05:00 -4°C° 0 mm 5 mps 727 mmHg 38%
    06:00 -3°C° 0 mm 4 mps 727 mmHg 37%
    07:00 -4°C° 0 mm 4 mps 727 mmHg 36%
    08:00 -2°C° 0 mm 4 mps 727 mmHg 34%
    09:00 -1°C° 0 mm 5 mps 728 mmHg 31%
    10:00 +1°C° 0 mm 5 mps 728 mmHg 28%
    11:00 +2°C° 0 mm 5 mps 728 mmHg 28%
    12:00 +5°C° 0 mm 5 mps 728 mmHg 28%
    13:00 +7°C° 0 mm 6 mps 728 mmHg 28%
    14:00 +7°C° 0 mm 6 mps 728 mmHg 31%
    15:00 +7°C° 0 mm 5 mps 728 mmHg 34%
    16:00 +7°C° 0 mm 5 mps 727 mmHg 37%
    17:00 +5°C° 0 mm 5 mps 728 mmHg 41%
    18:00 +3°C° 0 mm 4 mps 728 mmHg 46%
    19:00 0°C° 0 mm 4 mps 728 mmHg 50%
    20:00 0°C° 0 mm 4 mps 728 mmHg 50%
    21:00 -1°C° 0 mm 4 mps 729 mmHg 50%
    22:00 -1°C° 0 mm 4 mps 729 mmHg 50%
    23:00 -1°C° 0 mm 4 mps 729 mmHg 52%

    25 February, Monday

    Time Temperature Precipitation Wind Pressure Humidity
    00:00 -1°C° 0 mm 4 mps 729 mmHg 53%
    01:00 -1°C° 0 mm 3 mps 729 mmHg 54%
    02:00 -2°C° 0 mm 4 mps 728 mmHg 55%
    03:00 -2°C° 0 mm 4 mps 728 mmHg 56%
    04:00 -2°C° 0 mm 4 mps 728 mmHg 57%
    05:00 -2°C° 0 mm 4 mps 728 mmHg 59%
    06:00 -1°C° 0 mm 3 mps 729 mmHg 60%
    07:00 -1°C° 0 mm 3 mps 729 mmHg 61%
    08:00 -1°C° 0 mm 4 mps 729 mmHg 59%
    09:00 +1°C° 0 mm 4 mps 729 mmHg 56%
    10:00 +3°C° 0 mm 5 mps 729 mmHg 53%
    11:00 +6°C° 0 mm 5 mps 729 mmHg 53%
    12:00 +7°C° 0 mm 6 mps 729 mmHg 53%
    13:00 +9°C° 0 mm 6 mps 729 mmHg 53%
    14:00 +9°C° 0 mm 6 mps 728 mmHg 56%
    15:00 +9°C° 0 mm 6 mps 728 mmHg 59%
    16:00 +9°C° 0 mm 6 mps 728 mmHg 62%
    17:00 +7°C° 0 mm 6 mps 728 mmHg 68%
    18:00 +6°C° 0 mm 5 mps 728 mmHg 74%
    19:00 +3°C° 0 mm 5 mps 728 mmHg 80%
    20:00 +3°C° 0 mm 5 mps 728 mmHg 81%
    21:00 +2°C° 0 mm 5 mps 728 mmHg 83%
    22:00 +3°C° 0 mm 4 mps 728 mmHg 85%
    23:00 +1°C° 0 mm 4 mps 728 mmHg 86%

    26 February, Tuesday

    Time Temperature Precipitation Wind Pressure Humidity
    00:00 +1°C° 0 mm 4 mps 728 mmHg 87%
    01:00 +1°C° 0 mm 3 mps 728 mmHg 88%
    02:00 +1°C° 0 mm 3 mps 728 mmHg 88%
    03:00 +1°C° 0 mm 3 mps 727 mmHg 89%
    04:00 +1°C° 0 mm 2 mps 727 mmHg 90%
    05:00 +1°C° 0 mm 2 mps 727 mmHg 90%
    06:00 +1°C° 0 mm 2 mps 727 mmHg 90%
    07:00 -1°C° 0 mm 2 mps 727 mmHg 90%
    08:00 +2°C° 0 mm 2 mps 727 mmHg 83%
    09:00 +4°C° 0 mm 2 mps 727 mmHg 75%
    10:00 +6°C° 0 mm 2 mps 727 mmHg 67%
    11:00 +8°C° 0 mm 2 mps 727 mmHg 62%
    12:00 +9°C° 0 mm 2 mps 727 mmHg 58%
    13:00 +11°C° 0 mm 3 mps 727 mmHg 53%
    14:00 +12°C° 0 mm 2 mps 727 mmHg 54%
    15:00 +12°C° 0 mm 2 mps 727 mmHg 55%
    16:00 +13°C° 0 mm 2 mps 727 mmHg 56%
    17:00 +10°C° 0 mm 2 mps 727 mmHg 62%
    18:00 +8°C° 0 mm 2 mps 727 mmHg 68%
    19:00 +7°C° 0 mm 1 mps 727 mmHg 74%
    20:00 +6°C° 0 mm 1 mps 727 mmHg 75%
    21:00 +6°C° 0 mm 1 mps 727 mmHg 76%
    22:00 +5°C° 0 mm 1 mps 727 mmHg 77%
    23:00 +5°C° 0 mm 1 mps 726 mmHg 78%

    27 February, Wednesday

    Time Temperature Precipitation Wind Pressure Humidity
    00:00 +5°C° 0 mm 1 mps 726 mmHg 79%
    01:00 +4°C° 0 mm 1 mps 726 mmHg 80%
    02:00 +4°C° 0 mm 1 mps 726 mmHg 80%
    03:00 +4°C° 0 mm 1 mps 726 mmHg 81%
    04:00 +4°C° 0 mm 1 mps 725 mmHg 81%
    05:00 +4°C° 0 mm 1 mps 725 mmHg 81%
    06:00 +3°C° 0 mm 1 mps 725 mmHg 81%
    07:00 +3°C° 0 mm 1 mps 725 mmHg 81%
    08:00 +5°C° 0 mm 1 mps 725 mmHg 74%
    09:00 +7°C° 0 mm 1 mps 724 mmHg 68%
    10:00 +9°C° 0 mm 1 mps 724 mmHg 61%
    11:00 +10°C° 0 mm 2 mps 724 mmHg 56%
    12:00 +13°C° 0 mm 2 mps 724 mmHg 52%
    13:00 +14°C° 0 mm 2 mps 723 mmHg 48%
    14:00 +14°C° 0 mm 2 mps 723 mmHg 50%
    15:00 +14°C° 0 mm 2 mps 722 mmHg 52%
    16:00 +14°C° 0 mm 2 mps 722 mmHg 54%
    17:00 +12°C° 0 mm 2 mps 722 mmHg 59%
    18:00 +10°C° 0 mm 1 mps 721 mmHg 64%
    19:00 +8°C° 0 mm 1 mps 721 mmHg 69%
    20:00 +8°C° 0 mm 1 mps 721 mmHg 70%
    21:00 +8°C° 0 mm 1 mps 721 mmHg 71%
    22:00 +6°C° 0 mm 0 mps 721 mmHg 72%
    23:00 +7°C° 0 mm 1 mps 720 mmHg 73%
    Show more